User: anonymous   Login
Location: Unspecified
(0.0000°N, 0.0000°E)
Time: 21:55:35
(UTC+00:00)
Language:

N. Korean satellite - Orbit

View from above orbital plane
View from above orbital plane
View from above satellite
View from above satellite

Ground track
Ground track

The orbit data is extracted from the following two-line orbital elements,

1 39026U 12072A   17082.79034487 +.00002889 +00000-0 +11543-3 0  9996
2 39026 097.2295 103.5496 0042654 118.3068 242.2484 15.25065290236914
Epoch (UTC): 23 March 2017 18:58:05
Eccentricity: 0.0042654
inclination: 97.2295°
perigee height: 461 km
apogee height: 520 km
right ascension of ascending node: 103.5496°
argument of perigee: 118.3068°
revolutions per day: 15.25065290
mean anomaly at epoch: 242.2484°
orbit number at epoch: 23691

The dashed part of the orbit path shows where the satellite is in the earth's shadow,  

DLR